Year,Month,Day,Hour,Minute,Value (Times are PST for temperature in C)
2008,10,21,00,00,4.30
2008,10,21,00,01,4.20
2008,10,21,00,02,4.30
2008,10,21,00,03,4.30
2008,10,21,00,04,4.30
2008,10,21,00,05,4.30
2008,10,21,00,06,4.30
2008,10,21,00,07,4.30
2008,10,21,00,08,4.20
2008,10,21,00,09,4.30
2008,10,21,00,10,4.30
2008,10,21,00,11,4.30
2008,10,21,00,12,4.30
2008,10,21,00,13,4.30
2008,10,21,00,14,4.30
2008,10,21,00,15,4.20
2008,10,21,00,16,4.20
2008,10,21,00,17,4.20
2008,10,21,00,18,4.30
2008,10,21,00,19,4.30
2008,10,21,00,20,4.30
2008,10,21,00,21,4.30
2008,10,21,00,22,4.30
2008,10,21,00,23,4.30
2008,10,21,00,24,4.30
2008,10,21,00,25,4.30
2008,10,21,00,26,4.30
2008,10,21,00,27,4.30
2008,10,21,00,28,4.30
2008,10,21,00,29,4.30
2008,10,21,00,30,4.30
2008,10,21,00,31,4.30
2008,10,21,00,32,4.20
2008,10,21,00,33,4.20
2008,10,21,00,34,4.20
2008,10,21,00,35,4.20
2008,10,21,00,36,4.20
2008,10,21,00,37,4.20
2008,10,21,00,38,4.20
2008,10,21,00,39,4.20
2008,10,21,00,40,4.20
2008,10,21,00,41,4.30
2008,10,21,00,42,4.40
2008,10,21,00,43,4.50
2008,10,21,00,44,4.60
2008,10,21,00,45,4.60
2008,10,21,00,46,4.60
2008,10,21,00,47,4.60
2008,10,21,00,48,4.60
2008,10,21,00,49,4.60
2008,10,21,00,50,4.60
2008,10,21,00,51,4.70
2008,10,21,00,52,4.80
2008,10,21,00,53,4.80
2008,10,21,00,54,4.80
2008,10,21,00,55,4.80
2008,10,21,00,56,4.80
2008,10,21,00,57,4.80
2008,10,21,00,58,4.80
2008,10,21,00,59,4.80
2008,10,21,01,00,4.80
2008,10,21,01,01,4.70
2008,10,21,01,02,4.70
2008,10,21,01,03,4.60
2008,10,21,01,04,4.60
2008,10,21,01,05,4.60
2008,10,21,01,06,4.70
2008,10,21,01,07,4.70
2008,10,21,01,08,4.70
2008,10,21,01,09,4.70
2008,10,21,01,10,4.70
2008,10,21,01,11,4.70
2008,10,21,01,12,4.70
2008,10,21,01,13,4.70
2008,10,21,01,14,4.70
2008,10,21,01,15,4.60
2008,10,21,01,16,4.60
2008,10,21,01,17,4.60
2008,10,21,01,18,4.60
2008,10,21,01,19,4.60
2008,10,21,01,20,4.60
2008,10,21,01,21,4.60
2008,10,21,01,22,4.60
2008,10,21,01,23,4.60
2008,10,21,01,24,4.60
2008,10,21,01,25,4.50
2008,10,21,01,26,4.50
2008,10,21,01,27,4.50
2008,10,21,01,28,4.50
2008,10,21,01,29,4.40
2008,10,21,01,30,4.40
2008,10,21,01,31,4.40
2008,10,21,01,32,4.40
2008,10,21,01,33,4.30
2008,10,21,01,34,4.30
2008,10,21,01,35,4.30
2008,10,21,01,36,4.30
2008,10,21,01,37,4.30
2008,10,21,01,38,4.20
2008,10,21,01,39,4.20
2008,10,21,01,40,4.20
2008,10,21,01,41,4.20
2008,10,21,01,42,4.20
2008,10,21,01,43,4.20
2008,10,21,01,44,4.20
2008,10,21,01,45,4.20
2008,10,21,01,46,4.20
2008,10,21,01,47,4.20
2008,10,21,01,48,4.20
2008,10,21,01,49,4.20
2008,10,21,01,50,4.20
2008,10,21,01,51,4.20
2008,10,21,01,52,4.20
2008,10,21,01,53,4.20
2008,10,21,01,54,4.20
2008,10,21,01,55,4.20
2008,10,21,01,56,4.20
2008,10,21,01,57,4.20
2008,10,21,01,58,4.20
2008,10,21,01,59,4.20
2008,10,21,02,00,4.20
2008,10,21,02,01,4.20
2008,10,21,02,02,4.20
2008,10,21,02,03,4.20
2008,10,21,02,04,4.20
2008,10,21,02,05,4.20
2008,10,21,02,06,4.20
2008,10,21,02,07,4.20
2008,10,21,02,08,4.20
2008,10,21,02,09,4.20
2008,10,21,02,10,4.20
2008,10,21,02,11,4.20
2008,10,21,02,12,4.20
2008,10,21,02,13,4.20
2008,10,21,02,14,4.20
2008,10,21,02,15,4.10
2008,10,21,02,16,4.10
2008,10,21,02,17,4.10
2008,10,21,02,18,4.10
2008,10,21,02,19,4.10
2008,10,21,02,20,4.10
2008,10,21,02,21,4.00
2008,10,21,02,22,4.00
2008,10,21,02,23,4.00
2008,10,21,02,24,4.00
2008,10,21,02,25,4.00
2008,10,21,02,26,4.00
2008,10,21,02,27,4.00
2008,10,21,02,28,4.00
2008,10,21,02,29,4.00
2008,10,21,02,30,4.00
2008,10,21,02,31,4.00
2008,10,21,02,32,4.00
2008,10,21,02,33,4.00
2008,10,21,02,34,4.00
2008,10,21,02,35,4.00
2008,10,21,02,36,4.00
2008,10,21,02,37,4.00
2008,10,21,02,38,4.10
2008,10,21,02,39,4.10
2008,10,21,02,40,4.10
2008,10,21,02,41,4.10
2008,10,21,02,42,4.10
2008,10,21,02,43,4.20
2008,10,21,02,44,4.20
2008,10,21,02,45,4.20
2008,10,21,02,46,4.20
2008,10,21,02,47,4.20
2008,10,21,02,48,4.20
2008,10,21,02,49,4.20
2008,10,21,02,50,4.20
2008,10,21,02,51,4.20
2008,10,21,02,52,4.20
2008,10,21,02,53,4.20
2008,10,21,02,54,4.20
2008,10,21,02,55,4.20
2008,10,21,02,56,4.20
2008,10,21,02,57,4.20
2008,10,21,02,58,4.20
2008,10,21,02,59,4.10
2008,10,21,03,00,4.10
2008,10,21,03,01,4.10
2008,10,21,03,02,4.00
2008,10,21,03,03,4.00
2008,10,21,03,04,4.00
2008,10,21,03,05,4.00
2008,10,21,03,06,3.90
2008,10,21,03,07,3.90
2008,10,21,03,08,3.90
2008,10,21,03,09,3.80
2008,10,21,03,10,3.80
2008,10,21,03,11,3.80
2008,10,21,03,12,3.80
2008,10,21,03,13,3.80
2008,10,21,03,14,3.80
2008,10,21,03,15,3.80
2008,10,21,03,16,3.80
2008,10,21,03,17,3.70
2008,10,21,03,18,3.70
2008,10,21,03,19,3.70
2008,10,21,03,20,3.70
2008,10,21,03,21,3.70
2008,10,21,03,22,3.70
2008,10,21,03,23,3.70
2008,10,21,03,24,3.70
2008,10,21,03,25,3.70
2008,10,21,03,26,3.70
2008,10,21,03,27,3.70
2008,10,21,03,28,3.70
2008,10,21,03,29,3.70
2008,10,21,03,30,3.70
2008,10,21,03,31,3.70
2008,10,21,03,32,3.70
2008,10,21,03,33,3.70
2008,10,21,03,34,3.70
2008,10,21,03,35,3.70
2008,10,21,03,36,3.70
2008,10,21,03,37,3.70
2008,10,21,03,38,3.70
2008,10,21,03,39,3.70
2008,10,21,03,40,3.70
2008,10,21,03,41,3.70
2008,10,21,03,42,3.70
2008,10,21,03,43,3.70
2008,10,21,03,44,3.70
2008,10,21,03,45,3.70
2008,10,21,03,46,3.70
2008,10,21,03,47,3.70
2008,10,21,03,48,3.70
2008,10,21,03,49,3.70
2008,10,21,03,50,3.70
2008,10,21,03,51,3.60
2008,10,21,03,52,3.60
2008,10,21,03,53,3.70
2008,10,21,03,54,3.70
2008,10,21,03,55,3.70
2008,10,21,03,56,3.70
2008,10,21,03,57,3.70
2008,10,21,03,58,3.70
2008,10,21,03,59,3.70
2008,10,21,04,00,3.70
2008,10,21,04,01,3.70
2008,10,21,04,02,3.70
2008,10,21,04,03,3.70
2008,10,21,04,04,3.70
2008,10,21,04,05,3.70
2008,10,21,04,06,3.70
2008,10,21,04,07,3.70
2008,10,21,04,08,3.70
2008,10,21,04,09,3.70
2008,10,21,04,10,3.70
2008,10,21,04,11,3.70
2008,10,21,04,12,3.70
2008,10,21,04,13,3.70
2008,10,21,04,14,3.70
2008,10,21,04,15,3.70
2008,10,21,04,16,3.70
2008,10,21,04,17,3.70
2008,10,21,04,18,3.70
2008,10,21,04,19,3.80
2008,10,21,04,20,3.80
2008,10,21,04,21,3.80
2008,10,21,04,22,3.80
2008,10,21,04,23,3.80
2008,10,21,04,24,3.80
2008,10,21,04,25,3.80
2008,10,21,04,26,3.80
2008,10,21,04,27,3.80
2008,10,21,04,28,3.80
2008,10,21,04,29,3.80
2008,10,21,04,30,3.80
2008,10,21,04,31,3.80
2008,10,21,04,32,3.80
2008,10,21,04,33,3.80
2008,10,21,04,34,3.90
2008,10,21,04,35,3.90
2008,10,21,04,36,3.90
2008,10,21,04,37,3.90
2008,10,21,04,38,3.90
2008,10,21,04,39,3.90
2008,10,21,04,40,3.90
2008,10,21,04,41,3.90
2008,10,21,04,42,3.90
2008,10,21,04,43,3.90
2008,10,21,04,44,3.90
2008,10,21,04,45,3.90
2008,10,21,04,46,3.90
2008,10,21,04,47,3.90
2008,10,21,04,48,3.90
2008,10,21,04,49,3.90
2008,10,21,04,50,3.80
2008,10,21,04,51,3.80
2008,10,21,04,52,3.80
2008,10,21,04,53,3.80
2008,10,21,04,54,3.80
2008,10,21,04,55,3.80
2008,10,21,04,56,3.80
2008,10,21,04,57,3.70
2008,10,21,04,58,3.60
2008,10,21,04,59,3.60
2008,10,21,05,00,3.50
2008,10,21,05,01,3.50
2008,10,21,05,02,3.40
2008,10,21,05,03,3.40
2008,10,21,05,04,3.30
2008,10,21,05,05,3.30
2008,10,21,05,06,3.20
2008,10,21,05,07,3.10
2008,10,21,05,08,3.10
2008,10,21,05,09,3.00
2008,10,21,05,10,2.90
2008,10,21,05,11,2.90
2008,10,21,05,12,2.90
2008,10,21,05,13,2.80
2008,10,21,05,14,2.80
2008,10,21,05,15,2.80
2008,10,21,05,16,2.70
2008,10,21,05,17,2.70
2008,10,21,05,18,2.70
2008,10,21,05,19,2.70
2008,10,21,05,20,2.70
2008,10,21,05,21,2.70
2008,10,21,05,22,2.70
2008,10,21,05,23,2.60
2008,10,21,05,24,2.60
2008,10,21,05,25,2.60
2008,10,21,05,26,2.60
2008,10,21,05,27,2.60
2008,10,21,05,28,2.60
2008,10,21,05,29,2.60
2008,10,21,05,30,2.60
2008,10,21,05,31,2.60
2008,10,21,05,32,2.60
2008,10,21,05,33,2.60
2008,10,21,05,34,2.60
2008,10,21,05,35,2.60
2008,10,21,05,36,2.60
2008,10,21,05,37,2.60
2008,10,21,05,38,2.60
2008,10,21,05,39,2.50
2008,10,21,05,40,2.50
2008,10,21,05,41,2.50
2008,10,21,05,42,2.50
2008,10,21,05,43,2.40
2008,10,21,05,44,2.40
2008,10,21,05,45,2.40
2008,10,21,05,46,2.40
2008,10,21,05,47,2.40
2008,10,21,05,48,2.30
2008,10,21,05,49,2.30
2008,10,21,05,50,2.30
2008,10,21,05,51,2.30
2008,10,21,05,52,2.30
2008,10,21,05,53,2.30
2008,10,21,05,54,2.30
2008,10,21,05,55,2.20
2008,10,21,05,56,2.20
2008,10,21,05,57,2.30
2008,10,21,05,58,2.30
2008,10,21,05,59,2.30
2008,10,21,06,00,2.30
2008,10,21,06,01,2.30
2008,10,21,06,02,2.20
2008,10,21,06,03,2.20
2008,10,21,06,04,2.20
2008,10,21,06,05,2.30
2008,10,21,06,06,2.30
2008,10,21,06,07,2.30
2008,10,21,06,08,2.30
2008,10,21,06,09,2.30
2008,10,21,06,10,2.30
2008,10,21,06,11,2.30
2008,10,21,06,12,2.30
2008,10,21,06,13,2.20
2008,10,21,06,14,2.20
2008,10,21,06,15,2.20
2008,10,21,06,16,2.20
2008,10,21,06,17,2.20
2008,10,21,06,18,2.20
2008,10,21,06,19,2.20
2008,10,21,06,20,2.20
2008,10,21,06,21,2.20
2008,10,21,06,22,2.20
2008,10,21,06,23,2.20
2008,10,21,06,24,2.10
2008,10,21,06,25,2.10
2008,10,21,06,26,2.10
2008,10,21,06,27,2.10
2008,10,21,06,28,2.10
2008,10,21,06,29,2.10
2008,10,21,06,30,2.10
2008,10,21,06,31,2.10
2008,10,21,06,32,2.00
2008,10,21,06,33,2.00
2008,10,21,06,34,2.00
2008,10,21,06,35,2.00
2008,10,21,06,36,2.00
2008,10,21,06,37,2.00
2008,10,21,06,38,2.00
2008,10,21,06,39,2.00
2008,10,21,06,40,2.00
2008,10,21,06,41,2.00
2008,10,21,06,42,2.00
2008,10,21,06,43,2.00
2008,10,21,06,44,2.00
2008,10,21,06,45,2.00
2008,10,21,06,46,2.00
2008,10,21,06,47,2.00
2008,10,21,06,48,2.10
2008,10,21,06,49,2.10
2008,10,21,06,50,2.10
2008,10,21,06,51,2.10
2008,10,21,06,52,2.10
2008,10,21,06,53,2.20
2008,10,21,06,54,2.20
2008,10,21,06,55,2.20
2008,10,21,06,56,2.20
2008,10,21,06,57,2.20
2008,10,21,06,58,2.20
2008,10,21,06,59,2.20
2008,10,21,07,00,2.30
2008,10,21,07,01,2.30
2008,10,21,07,02,2.30
2008,10,21,07,03,2.30
2008,10,21,07,04,2.30
2008,10,21,07,05,2.30
2008,10,21,07,06,2.30
2008,10,21,07,07,2.30
2008,10,21,07,08,2.30
2008,10,21,07,09,2.30
2008,10,21,07,10,2.30
2008,10,21,07,11,2.30
2008,10,21,07,12,2.30
2008,10,21,07,13,2.20
2008,10,21,07,14,2.20
2008,10,21,07,15,2.20
2008,10,21,07,16,2.20
2008,10,21,07,17,2.20
2008,10,21,07,18,2.20
2008,10,21,07,19,2.20
2008,10,21,07,20,2.20
2008,10,21,07,21,2.20
2008,10,21,07,22,2.20
2008,10,21,07,23,2.20
2008,10,21,07,24,2.20
2008,10,21,07,25,2.20
2008,10,21,07,26,2.10
2008,10,21,07,27,2.10
2008,10,21,07,28,2.10
2008,10,21,07,29,2.10
2008,10,21,07,30,2.10
2008,10,21,07,31,2.20
2008,10,21,07,32,2.20
2008,10,21,07,33,2.20
2008,10,21,07,34,2.20
2008,10,21,07,35,2.20
2008,10,21,07,36,2.20
2008,10,21,07,37,2.20
2008,10,21,07,38,2.20
2008,10,21,07,39,2.20
2008,10,21,07,40,2.10
2008,10,21,07,41,2.10
2008,10,21,07,42,2.10
2008,10,21,07,43,2.10
2008,10,21,07,44,2.10
2008,10,21,07,45,2.10
2008,10,21,07,46,2.10
2008,10,21,09,15,3.60
2008,10,21,09,16,3.70
2008,10,21,09,18,4.00
2008,10,21,09,19,4.00
2008,10,21,09,20,4.00
2008,10,21,09,21,4.10
2008,10,21,09,22,4.10
2008,10,21,09,23,4.10
2008,10,21,09,24,4.20
2008,10,21,09,25,4.20
2008,10,21,09,26,4.20
2008,10,21,09,27,4.20
2008,10,21,09,28,4.30
2008,10,21,09,29,4.40
2008,10,21,09,30,4.50
2008,10,21,09,31,4.60
2008,10,21,09,32,4.80
2008,10,21,09,33,4.90
2008,10,21,09,34,5.00
2008,10,21,09,35,5.10
2008,10,21,09,36,5.10
2008,10,21,09,37,5.10
2008,10,21,09,38,5.10
2008,10,21,09,39,5.10
2008,10,21,09,40,5.10
2008,10,21,09,41,5.10
2008,10,21,09,42,5.10
2008,10,21,09,43,5.10
2008,10,21,09,44,5.10
2008,10,21,09,45,5.10
2008,10,21,09,46,5.00
2008,10,21,09,47,4.90
2008,10,21,09,48,4.90
2008,10,21,09,49,4.90
2008,10,21,09,50,5.00
2008,10,21,09,51,5.10
2008,10,21,09,52,5.10
2008,10,21,09,53,5.10
2008,10,21,09,54,5.10
2008,10,21,09,55,5.20
2008,10,21,09,56,5.20
2008,10,21,09,57,5.30
2008,10,21,09,58,5.30
2008,10,21,09,59,5.40
2008,10,21,10,00,5.40
2008,10,21,10,01,5.40
2008,10,21,10,02,5.40
2008,10,21,10,03,5.40
2008,10,21,10,04,5.40
2008,10,21,10,05,5.50
2008,10,21,10,06,5.50
2008,10,21,10,07,5.60
2008,10,21,10,08,5.60
2008,10,21,10,09,5.70
2008,10,21,10,10,5.70
2008,10,21,10,11,5.80
2008,10,21,10,12,5.80
2008,10,21,10,13,5.90
2008,10,21,10,14,5.90
2008,10,21,10,15,6.00
2008,10,21,10,16,6.00
2008,10,21,10,17,6.10
2008,10,21,10,18,6.20
2008,10,21,10,19,6.30
2008,10,21,10,20,6.40
2008,10,21,10,21,6.60
2008,10,21,10,22,6.70
2008,10,21,10,23,6.80
2008,10,21,10,24,6.90
2008,10,21,10,25,7.10
2008,10,21,10,26,7.20
2008,10,21,10,27,7.30
2008,10,21,10,28,7.30
2008,10,21,10,29,7.40
2008,10,21,10,30,7.50
2008,10,21,10,31,7.60
2008,10,21,10,32,7.70
2008,10,21,10,33,7.80
2008,10,21,10,34,7.80
2008,10,21,10,35,7.90
2008,10,21,10,36,7.90
2008,10,21,10,37,7.90
2008,10,21,10,38,8.00
2008,10,21,10,39,8.10
2008,10,21,10,40,8.10
2008,10,21,10,41,8.20
2008,10,21,10,42,8.30
2008,10,21,10,43,8.40
2008,10,21,10,44,8.50
2008,10,21,10,45,8.50
2008,10,21,10,46,8.60
2008,10,21,10,47,8.70
2008,10,21,10,48,8.70
2008,10,21,10,49,8.70
2008,10,21,10,50,8.80
2008,10,21,10,51,8.80
2008,10,21,10,52,8.80
2008,10,21,10,53,8.80
2008,10,21,10,54,8.80
2008,10,21,10,55,8.90
2008,10,21,10,56,8.90
2008,10,21,10,57,8.90
2008,10,21,10,58,8.90
2008,10,21,10,59,8.90
2008,10,21,11,00,8.90
2008,10,21,11,01,8.90
2008,10,21,11,02,8.90
2008,10,21,11,03,8.90
2008,10,21,11,04,9.00
2008,10,21,11,05,9.00
2008,10,21,11,06,9.00
2008,10,21,11,07,9.10
2008,10,21,11,08,9.10
2008,10,21,11,09,9.10
2008,10,21,11,10,9.10
2008,10,21,11,11,9.20
2008,10,21,11,12,9.20
2008,10,21,11,13,9.30
2008,10,21,11,14,9.40
2008,10,21,11,15,9.40
2008,10,21,11,16,9.50
2008,10,21,11,17,9.60
2008,10,21,11,18,9.70
2008,10,21,11,19,9.70
2008,10,21,11,20,9.80
2008,10,21,11,21,9.80
2008,10,21,11,22,9.90
2008,10,21,11,23,9.90
2008,10,21,11,24,9.90
2008,10,21,11,25,9.90
2008,10,21,11,26,10.10
2008,10,21,11,27,10.10
2008,10,21,11,28,10.10
2008,10,21,11,29,10.20
2008,10,21,11,30,10.30
2008,10,21,11,31,10.30
2008,10,21,11,32,10.40
2008,10,21,11,33,10.40
2008,10,21,11,34,10.40
2008,10,21,11,35,10.40
2008,10,21,11,36,10.60
2008,10,21,11,37,10.60
2008,10,21,11,38,10.60
2008,10,21,11,39,10.60
2008,10,21,11,40,10.60
2008,10,21,11,41,10.50
2008,10,21,11,42,10.40
2008,10,21,11,43,10.40
2008,10,21,11,44,10.30
2008,10,21,11,45,10.20
2008,10,21,11,46,10.20
2008,10,21,11,47,10.10
2008,10,21,11,48,10.10
2008,10,21,11,49,10.10
2008,10,21,11,50,10.10
2008,10,21,11,51,10.10
2008,10,21,11,52,10.10
2008,10,21,11,53,10.10
2008,10,21,11,54,10.10
2008,10,21,11,55,10.10
2008,10,21,11,56,10.10
2008,10,21,11,57,10.10
2008,10,21,11,58,10.10
2008,10,21,11,59,10.10
2008,10,21,12,00,10.10
2008,10,21,12,01,10.10
2008,10,21,12,02,10.10
2008,10,21,12,03,10.20
2008,10,21,12,04,10.10
2008,10,21,12,05,10.10
2008,10,21,12,06,10.10
2008,10,21,12,07,10.20
2008,10,21,12,08,10.20
2008,10,21,12,09,10.20
2008,10,21,12,10,10.20
2008,10,21,12,11,10.30
2008,10,21,12,12,10.30
2008,10,21,12,13,10.30
2008,10,21,12,14,10.40
2008,10,21,12,15,10.40
2008,10,21,12,16,10.40
2008,10,21,12,17,10.30
2008,10,21,12,18,10.30
2008,10,21,12,19,10.30
2008,10,21,12,20,10.30
2008,10,21,12,21,10.30
2008,10,21,12,22,10.20
2008,10,21,12,23,10.20
2008,10,21,12,24,10.10
2008,10,21,12,25,10.10
2008,10,21,12,26,10.10
2008,10,21,12,27,10.10
2008,10,21,12,28,10.10
2008,10,21,12,29,10.10
2008,10,21,12,30,10.10
2008,10,21,12,31,10.10
2008,10,21,12,32,10.10
2008,10,21,12,33,10.10
2008,10,21,12,34,10.10
2008,10,21,12,35,10.10
2008,10,21,12,36,10.10
2008,10,21,12,37,10.10
2008,10,21,12,38,10.20
2008,10,21,12,39,10.30
2008,10,21,12,40,10.40
2008,10,21,12,41,10.40
2008,10,21,12,42,10.40
2008,10,21,12,43,10.60
2008,10,21,12,44,10.70
2008,10,21,12,45,10.70
2008,10,21,12,46,10.80
2008,10,21,12,47,10.70
2008,10,21,12,48,10.70
2008,10,21,12,49,10.70
2008,10,21,12,50,10.70
2008,10,21,12,51,10.60
2008,10,21,12,52,10.60
2008,10,21,12,53,10.60
2008,10,21,12,54,10.60
2008,10,21,12,55,10.60
2008,10,21,12,56,10.50
2008,10,21,12,57,10.50
2008,10,21,12,58,10.60
2008,10,21,12,59,10.60
2008,10,21,13,00,10.60
2008,10,21,13,01,10.60
2008,10,21,13,02,10.60
2008,10,21,13,03,10.60
2008,10,21,13,04,10.40
2008,10,21,13,05,10.40
2008,10,21,13,06,10.40
2008,10,21,13,07,10.40
2008,10,21,13,08,10.40
2008,10,21,13,09,10.40
2008,10,21,13,10,10.50
2008,10,21,13,11,10.60
2008,10,21,13,12,10.60
2008,10,21,13,13,10.60
2008,10,21,13,14,10.70
2008,10,21,13,15,10.70
2008,10,21,13,16,10.70
2008,10,21,13,17,10.80
2008,10,21,13,18,10.80
2008,10,21,13,19,10.80
2008,10,21,13,20,10.80
2008,10,21,13,21,10.90
2008,10,21,13,22,10.80
2008,10,21,13,23,10.80
2008,10,21,13,24,10.80
2008,10,21,13,25,10.80
2008,10,21,13,26,10.80
2008,10,21,13,27,10.80
2008,10,21,13,28,10.90
2008,10,21,13,29,10.90
2008,10,21,13,30,10.90
2008,10,21,13,31,10.90
2008,10,21,13,32,10.90
2008,10,21,13,33,10.80
2008,10,21,13,34,10.80
2008,10,21,13,35,10.70
2008,10,21,13,36,10.60
2008,10,21,13,37,10.60
2008,10,21,13,38,10.60
2008,10,21,13,39,10.40
2008,10,21,13,40,10.40
2008,10,21,13,41,10.40
2008,10,21,13,42,10.40
2008,10,21,13,43,10.40
2008,10,21,13,44,10.40
2008,10,21,13,45,10.40
2008,10,21,13,46,10.30
2008,10,21,13,47,10.40
2008,10,21,13,48,10.40
2008,10,21,13,49,10.40
2008,10,21,13,50,10.40
2008,10,21,13,51,10.40
2008,10,21,13,52,10.40
2008,10,21,13,53,10.40
2008,10,21,13,54,10.60
2008,10,21,13,55,10.60
2008,10,21,13,56,10.60
2008,10,21,13,57,10.60
2008,10,21,13,58,10.60
2008,10,21,13,59,10.50
2008,10,21,14,00,10.40
2008,10,21,14,01,10.40
2008,10,21,14,02,10.40
2008,10,21,14,03,10.40
2008,10,21,14,04,10.40
2008,10,21,14,05,10.40
2008,10,21,14,06,10.40
2008,10,21,14,07,10.40
2008,10,21,14,08,10.40
2008,10,21,14,09,10.30
2008,10,21,14,10,10.30
2008,10,21,14,11,10.30
2008,10,21,14,12,10.30
2008,10,21,14,13,10.30
2008,10,21,14,14,10.30
2008,10,21,14,15,10.30
2008,10,21,14,16,10.30
2008,10,21,14,17,10.30
2008,10,21,14,18,10.30
2008,10,21,14,19,10.30
2008,10,21,14,20,10.30
2008,10,21,14,21,10.30
2008,10,21,14,22,10.30
2008,10,21,14,23,10.40
2008,10,21,14,24,10.40
2008,10,21,14,25,10.40
2008,10,21,14,26,10.40
2008,10,21,14,27,10.40
2008,10,21,14,28,10.40
2008,10,21,14,29,10.40
2008,10,21,14,30,10.40
2008,10,21,14,31,10.40
2008,10,21,14,32,10.40
2008,10,21,14,33,10.40
2008,10,21,14,34,10.40
2008,10,21,14,35,10.40
2008,10,21,14,36,10.40
2008,10,21,14,37,10.50
2008,10,21,14,38,10.60
2008,10,21,14,39,10.60
2008,10,21,14,40,10.60
2008,10,21,14,41,10.60
2008,10,21,14,42,10.60
2008,10,21,14,43,10.70
2008,10,21,14,44,10.60
2008,10,21,14,45,10.60
2008,10,21,14,46,10.60
2008,10,21,14,47,10.60
2008,10,21,14,48,10.60
2008,10,21,14,49,10.60
2008,10,21,14,50,10.60
2008,10,21,14,51,10.60
2008,10,21,14,52,10.60
2008,10,21,14,53,10.60
2008,10,21,14,54,10.60
2008,10,21,14,55,10.60
2008,10,21,14,56,10.60
2008,10,21,14,57,10.60
2008,10,21,14,58,10.60
2008,10,21,14,59,10.60
2008,10,21,15,00,10.60
2008,10,21,15,01,10.60
2008,10,21,15,02,10.60
2008,10,21,15,03,10.60
2008,10,21,15,04,10.60
2008,10,21,15,05,10.60
2008,10,21,15,06,10.60
2008,10,21,15,07,10.60
2008,10,21,15,08,10.60
2008,10,21,15,09,10.50
2008,10,21,15,10,10.50
2008,10,21,15,11,10.50
2008,10,21,15,12,10.40
2008,10,21,15,13,10.40
2008,10,21,15,14,10.40
2008,10,21,15,15,10.40
2008,10,21,15,16,10.40
2008,10,21,15,17,10.40
2008,10,21,15,18,10.40
2008,10,21,15,19,10.40
2008,10,21,15,20,10.30
2008,10,21,15,21,10.30
2008,10,21,15,22,10.30
2008,10,21,15,23,10.30
2008,10,21,15,24,10.20
2008,10,21,15,25,10.20
2008,10,21,15,26,10.20
2008,10,21,15,27,10.20
2008,10,21,15,28,10.20
2008,10,21,15,29,10.20
2008,10,21,15,30,10.20
2008,10,21,15,31,10.20
2008,10,21,15,32,10.20
2008,10,21,15,33,10.10
2008,10,21,15,34,10.10
2008,10,21,15,35,10.10
2008,10,21,15,36,10.10
2008,10,21,15,37,10.10
2008,10,21,15,38,10.10
2008,10,21,15,39,10.10
2008,10,21,15,40,10.10
2008,10,21,15,41,10.10
2008,10,21,15,42,10.10
2008,10,21,15,43,10.10
2008,10,21,15,44,10.10
2008,10,21,15,45,10.10
2008,10,21,15,46,10.10
2008,10,21,15,47,10.10
2008,10,21,15,48,10.10
2008,10,21,15,49,10.10
2008,10,21,15,50,10.10
2008,10,21,15,51,10.10
2008,10,21,15,52,10.00
2008,10,21,15,53,9.90
2008,10,21,15,54,9.90
2008,10,21,15,55,9.90
2008,10,21,15,56,9.90
2008,10,21,15,57,9.90
2008,10,21,15,58,9.90
2008,10,21,15,59,9.90
2008,10,21,16,00,9.90
2008,10,21,16,01,9.80
2008,10,21,16,02,9.80
2008,10,21,16,03,9.80
2008,10,21,16,04,9.80
2008,10,21,16,05,9.80
2008,10,21,16,06,9.80
2008,10,21,16,07,9.80
2008,10,21,16,08,9.80
2008,10,21,16,09,9.80
2008,10,21,16,10,9.80
2008,10,21,16,11,9.80
2008,10,21,16,12,9.80
2008,10,21,16,13,9.80
2008,10,21,16,14,9.80
2008,10,21,16,15,9.80
2008,10,21,16,16,9.80
2008,10,21,16,17,9.70
2008,10,21,16,18,9.70
2008,10,21,16,19,9.70
2008,10,21,16,20,9.70
2008,10,21,16,21,9.70
2008,10,21,16,22,9.70
2008,10,21,16,23,9.70
2008,10,21,16,24,9.60
2008,10,21,16,25,9.60
2008,10,21,16,26,9.60
2008,10,21,16,27,9.60
2008,10,21,16,28,9.60
2008,10,21,16,29,9.60
2008,10,21,16,30,9.60
2008,10,21,16,31,9.60
2008,10,21,16,32,9.60
2008,10,21,16,33,9.50
2008,10,21,16,34,9.50
2008,10,21,16,35,9.50
2008,10,21,16,36,9.50
2008,10,21,16,37,9.50
2008,10,21,16,38,9.50
2008,10,21,16,39,9.50
2008,10,21,16,40,9.50
2008,10,21,16,41,9.50
2008,10,21,16,42,9.40
2008,10,21,16,43,9.40
2008,10,21,16,44,9.40
2008,10,21,16,45,9.40
2008,10,21,16,46,9.40
2008,10,21,16,47,9.40
2008,10,21,16,48,9.40
2008,10,21,16,49,9.30
2008,10,21,16,50,9.30
2008,10,21,16,51,9.30
2008,10,21,16,52,9.30
2008,10,21,16,53,9.20
2008,10,21,16,54,9.20
2008,10,21,16,55,9.20
2008,10,21,16,56,9.20
2008,10,21,16,57,9.20
2008,10,21,16,58,9.20
2008,10,21,16,59,9.20
2008,10,21,17,00,9.20
2008,10,21,17,01,9.20
2008,10,21,17,02,9.10
2008,10,21,17,03,9.10
2008,10,21,17,04,9.00
2008,10,21,17,05,9.00
2008,10,21,17,06,9.00
2008,10,21,17,07,9.00
2008,10,21,17,08,9.00
2008,10,21,17,09,8.90
2008,10,21,17,10,8.90
2008,10,21,17,11,8.90
2008,10,21,17,12,8.90
2008,10,21,17,13,8.90
2008,10,21,17,14,8.90
2008,10,21,17,15,8.80
2008,10,21,17,16,8.80
2008,10,21,17,17,8.80
2008,10,21,17,18,8.70
2008,10,21,17,19,8.70
2008,10,21,17,20,8.70
2008,10,21,17,21,8.70
2008,10,21,17,22,8.70
2008,10,21,17,23,8.70
2008,10,21,17,24,8.70
2008,10,21,17,25,8.70
2008,10,21,17,26,8.70
2008,10,21,17,27,8.70
2008,10,21,17,28,8.70
2008,10,21,17,29,8.80
2008,10,21,17,30,8.80
2008,10,21,17,31,8.80
2008,10,21,17,32,8.70
2008,10,21,17,33,8.70
2008,10,21,17,34,8.70
2008,10,21,17,35,8.70
2008,10,21,17,36,8.70
2008,10,21,17,37,8.70
2008,10,21,17,38,8.70
2008,10,21,17,39,8.70
2008,10,21,17,40,8.70
2008,10,21,17,41,8.70
2008,10,21,17,42,8.70
2008,10,21,17,43,8.70
2008,10,21,17,44,8.70
2008,10,21,17,45,8.70
2008,10,21,17,46,8.70
2008,10,21,17,47,8.70
2008,10,21,17,48,8.70
2008,10,21,17,49,8.70
2008,10,21,17,50,8.70
2008,10,21,17,51,8.70
2008,10,21,17,52,8.70
2008,10,21,17,53,8.60
2008,10,21,17,54,8.60
2008,10,21,17,55,8.60
2008,10,21,17,56,8.60
2008,10,21,17,57,8.60
2008,10,21,17,58,8.60
2008,10,21,17,59,8.60
2008,10,21,18,00,8.60
2008,10,21,18,01,8.60
2008,10,21,18,02,8.60
2008,10,21,18,03,8.50
2008,10,21,18,04,8.50
2008,10,21,18,05,8.50
2008,10,21,18,06,8.50
2008,10,21,18,07,8.50
2008,10,21,18,08,8.40
2008,10,21,18,09,8.40
2008,10,21,18,10,8.40
2008,10,21,18,11,8.40
2008,10,21,18,12,8.30
2008,10,21,18,13,8.30
2008,10,21,18,14,8.30
2008,10,21,18,15,8.30
2008,10,21,18,16,8.30
2008,10,21,18,17,8.30
2008,10,21,18,18,8.30
2008,10,21,18,19,8.20
2008,10,21,18,20,8.20
2008,10,21,18,21,8.20
2008,10,21,18,22,8.20
2008,10,21,18,23,8.20
2008,10,21,18,24,8.20
2008,10,21,18,25,8.20
2008,10,21,18,26,8.20
2008,10,21,18,27,8.20
2008,10,21,18,28,8.20
2008,10,21,18,29,8.20
2008,10,21,18,30,8.20
2008,10,21,18,31,8.10
2008,10,21,18,32,8.10
2008,10,21,18,33,8.10
2008,10,21,18,34,8.10
2008,10,21,18,35,8.10
2008,10,21,18,36,8.00
2008,10,21,18,37,8.00
2008,10,21,18,38,8.00
2008,10,21,18,39,7.90
2008,10,21,18,40,7.90
2008,10,21,18,41,7.90
2008,10,21,18,42,7.80
2008,10,21,18,43,7.80
2008,10,21,18,44,7.80
2008,10,21,18,45,7.80
2008,10,21,18,46,7.80
2008,10,21,18,47,7.80
2008,10,21,18,48,7.80
2008,10,21,18,49,7.80
2008,10,21,18,50,7.80
2008,10,21,18,51,7.80
2008,10,21,18,52,7.80
2008,10,21,18,53,7.80
2008,10,21,18,54,7.70
2008,10,21,18,55,7.70
2008,10,21,18,56,7.70
2008,10,21,18,57,7.70
2008,10,21,18,58,7.70
2008,10,21,18,59,7.70
2008,10,21,19,00,7.70
2008,10,21,19,01,7.60
2008,10,21,19,02,7.60
2008,10,21,19,03,7.60
2008,10,21,19,04,7.60
2008,10,21,19,05,7.60
2008,10,21,19,06,7.60
2008,10,21,19,07,7.60
2008,10,21,19,08,7.60
2008,10,21,19,09,7.50
2008,10,21,19,10,7.50
2008,10,21,19,11,7.50
2008,10,21,19,12,7.50
2008,10,21,19,13,7.50
2008,10,21,19,14,7.40
2008,10,21,19,15,7.40
2008,10,21,19,16,7.40
2008,10,21,19,17,7.40
2008,10,21,19,18,7.30
2008,10,21,19,19,7.30
2008,10,21,19,20,7.30
2008,10,21,19,21,7.30
2008,10,21,19,22,7.30
2008,10,21,19,23,7.30